Regional Weather Roundup
Issued by NWS

Home | Current Version | Previous Version | Text Only | Print | Product List | Glossary Off
Versions: 1 2 3 4 5 6 7 8 9 10 11 12 13 14 15 16 17 18 19 20 21 22 23 24 25 26 27 28 29 30 31 32 33 34 35 36 37 38 39 40 41 42 43 44 45 46 47 48 49 50

000
ASUS43 KOAX 230802
RWRNE

WEATHER ROUNDUP FOR NEBRASKA
NATIONAL WEATHER SERVICE OMAHA NE
200 AM CST THU FEB 23 2017

NOTES: SATELLITE DATA IS BEING USED TO AUGMENT CLOUD COVER ABOVE
       12000 FEET.
       "FAIR" INDICATES FEW OR NO CLOUDS BELOW 12,000 FEET WITH NO
       SIGNIFICANT WEATHER AND/OR OBSTRUCTIONS TO VISIBILITY.

  * THESE STATIONS DO NOT REPORT WEATHER SUCH AS RAIN...SNOW OR FOG.

NEZ001>004-019>022-054>056-230900-
NEBRASKA PANHANDLE

CITY           SKY/WX    TMP DP  RH WIND       PRES   REMARKS
SCOTTSBLUFF    CLOUDY    34  30  85 NE15G21   29.78R WCI  24
ALLIANCE       CLOUDY    31  29  92 NE15G24   29.77F WCI  20
CHADRON        LGT SNOW  31  29  92 NE12      29.85F FOG     WCI  22
KIMBALL        CLOUDY    35  32  88 NE16      29.73F WCI  25
SIDNEY         CLOUDY    34  29  82 NE10      29.74F WCI  26
$$

NEZ057>060-069>072-079>082-230900-
SOUTHWEST NEBRASKA

CITY           SKY/WX    TMP DP  RH WIND       PRES   REMARKS
NORTH PLATTE   CLOUDY    36  31  82 NE18G25   29.78S WCI  26
IMPERIAL       CLEAR     36  31  82 NE17      29.74S WCI  26
LEXINGTON      MOCLDY    39  34  83 NE13      29.77S WCI  31
MCCOOK         CLEAR     37  30  75 NE12      29.72S WCI  29
OGALLALA       MOCLDY    36  33  90 E6        29.77S WCI  31
$$

NEZ005>010-023>029-035>040-094-230900-
NORTH CENTRAL NEBRASKA

CITY           SKY/WX    TMP DP  RH WIND       PRES   REMARKS
VALENTINE      CLOUDY    33  30  88 NE14      29.88R FOG     WCI  23
AINSWORTH      CLOUDY    33  33 100 NE14      29.85S FOG     WCI  23
BROKEN BOW     CLOUDY    38  35  89 NE17G26   29.80R WCI  28
O`NEILL        CLOUDY    34  32  94 N22       29.84F WCI  22
ORD            CLOUDY    40  35  83 N17G24    29.81R WCI  31
THEDFORD       CLOUDY    34  32  92 N10       29.83F WCI  26
$$

NEZ041-046>049-061>064-073>077-083>087-230900-
SOUTH CENTRAL NEBRASKA

CITY           SKY/WX    TMP DP  RH WIND       PRES   REMARKS
GRAND ISLAND   MOCLDY    41  38  89 NE22G29   29.79R
AURORA         CLOUDY    39  37  90 NE14      29.78R WCI  31
HASTINGS       CLEAR     40  34  79 NE18      29.77S WCI  31
HEBRON         CLEAR     42  36  79 NE9       29.74F
HOLDREGE       CLEAR     38  31  77 NE14      29.74S WCI  30
KEARNEY *      CLEAR     37  30  75 NE14      29.77S WCI  29
YORK           PTCLDY    41  37  87 NE16G24   29.79R
$$

NEZ011>018-030>034-042>045-230900-
NORTHEAST NEBRASKA

CITY           SKY/WX    TMP DP  RH WIND       PRES   REMARKS
NORFOLK        CLOUDY    37  33  85 N21       29.82R WCI  26
ALBION         MOCLDY    40  34  81 N7        29.83R WCI  35
BLAIR          CLEAR     42  37  84 N10       29.80S
FREMONT        CLEAR     40  36  86 CALM      29.82S
TEKAMAH        PTCLDY    38  35  89 N8        29.82R WCI  32
WAYNE          CLOUDY    37  36  93 N20G26    29.82S WCI  27
$$

NEZ050>053-065>068-078-088>093-230900-
SOUTHEAST NEBRASKA

CITY           SKY/WX    TMP DP  RH WIND       PRES   REMARKS
LINCOLN        MOCLDY    44  37  76 N13       29.79R
OMAHA EPPLEY   CLEAR     37  33  85 N8        29.81R WCI  31
BEATRICE       CLOUDY    46  39  75 NE10      29.74F
FALLS CITY     CLOUDY    47  39  74 NE5       29.74S
NEBRASKA CITY  CLEAR     44  36  75 NE13      29.75F
PLATTSMOUTH    CLEAR     43  36  77 N6        29.77F
$$

NEZ044-045-051>053-067-230900-
OMAHA AREA

CITY           SKY/WX    TMP DP  RH WIND       PRES   REMARKS
OMAHA EPPLEY   CLEAR     37  33  85 N8        29.81R WCI  31
BLAIR          CLEAR     42  37  84 N10       29.80S
FREMONT        CLEAR     40  36  86 CALM      29.82S
MILLARD        CLEAR     47  40  76 N6        29.80S
OFFUTT AFB     CLEAR     46  38  74 N13       29.78F
PLATTSMOUTH    CLEAR     43  36  77 N6        29.77F
WAHOO          FAIR      39  36  87 N13       29.80S WCI  32
$$



USA.gov is the U.S. government's official web portal to all federal, state and local government web resources and services.